Location: Unspecified
(0.0000°N, 0.0000°E)
Time: 12:22:48
(UTC+00:00)

Vanguard 2 Rocket - Pass Details

Date: 22 December 2018
Orbit: 556 x 3325 km, 32.9° (Epoch: 25 March)

Event Time Altitude Azimuth Distance (km) Brightness Sun altitude
Rises 11:00:14 0° 318° (NW) 3,278 9.5 62.6°
Reaches altitude 10° 11:02:19 10° 323° (NW) 2,554 9.1 62.9°
Maximum altitude 11:08:16 53° 40° (NE) 1,499 8.7 63.6°
Drops below altitude 10° 11:18:45 10° 114° (ESE) 4,396 10.8 64.6°
Sets 11:23:26 0° 117° (ESE) 5,869 11.3 65.1°
